This demonstration page uses our WeatherBlox Daily Observations layout. Learn more.

Hourly Observations for November 7, 2016

Temp ( °F °C ) Dew Point ( °F °C ) Humidity (%) Winds ( mph kmh ) Pressure ( in mb ) Visibility ( mi km ) Precip ( " mm )
12:15 am 00:15 Clear 43 6 36 2 76 76 Calm 30.45 1031 10 16.09344 0 0
12:35 am 00:35 Clear 43 6 37 3 81 81 Calm 30.45 1031 10 16.09344 0 0
12:55 am 00:55 Clear 43 6 36 2 76 76 N 3 6 30.45 1031 10 16.09344 0 0
1:15 am 01:15 Clear 41 5 36 2 81 81 N 5 7 30.48 1032 10 16.09344 0 0
1:35 am 01:35 Clear 43 6 36 2 76 76 N 3 6 30.48 1032 10 16.09344 0 0
1:55 am 01:55 Clear 45 7 36 2 71 71 Calm 30.48 1032 10 16.09344 0 0
2:15 am 02:15 Clear 41 5 36 2 81 81 Calm 30.48 1032 10 16.09344 0 0
2:35 am 02:35 Clear 45 7 34 1 66 66 NNE 5 7 30.48 1032 10 16.09344 0 0
2:55 am 02:55 Clear 46 8 32 0 57 57 NNE 7 11 30.48 1032 10 16.09344 0 0
3:15 am 03:15 Clear 46 8 32 0 57 57 NNE 5 7 30.48 1032 10 16.09344 0 0
3:35 am 03:35 Clear 46 8 32 0 57 57 NE 6 9 30.48 1032 10 16.09344 0 0
3:55 am 03:55 Clear 45 7 32 0 61 61 NE 6 9 30.48 1032 10 16.09344 0 0
4:15 am 04:15 Clear 43 6 32 0 66 66 Calm 30.48 1032 10 16.09344 0 0
4:35 am 04:35 Clear 43 6 32 0 66 66 NNE 3 6 30.48 1032 10 16.09344 0 0
4:55 am 04:55 Clear 43 6 32 0 66 66 Calm 30.48 1032 10 16.09344 0 0
5:15 am 05:15 Clear 43 6 32 0 66 66 N 6 9 30.5 1033 10 16.09344 0 0
5:35 am 05:35 Clear 43 6 32 0 66 66 N 6 9 30.5 1033 10 16.09344 0 0
5:55 am 05:55 Clear 41 5 32 0 70 70 N 3 6 30.5 1033 10 16.09344 0 0
6:15 am 06:15 Clear 41 5 32 0 70 70 N 7 11 30.5 1033 10 16.09344 0 0
6:35 am 06:35 Clear 41 5 32 0 70 70 N 5 7 30.53 1034 10 16.09344 0 0
6:55 am 06:55 Sunny 41 5 32 0 70 70 NNE 3 6 30.53 1034 10 16.09344 0 0
7:15 am 07:15 Sunny 41 5 32 0 70 70 N 5 7 30.53 1034 10 16.09344 0 0
7:35 am 07:35 Sunny 43 6 32 0 66 66 NNE 3 6 30.53 1034 10 16.09344 0 0
7:55 am 07:55 Sunny 43 6 32 0 66 66 N 6 9 30.53 1034 10 16.09344 0 0
8:15 am 08:15 Sunny 45 7 32 0 61 61 undefined N/A 30.53 1034 10 16.09344 0 0
8:35 am 08:35 Sunny 46 8 34 1 62 62 NNE 6 9 30.53 1034 10 16.09344 0 0
8:55 am 08:55 Sunny 46 8 34 1 62 62 NNE 5 7 30.53 1034 10 16.09344 0 0
9:15 am 09:15 Sunny 48 9 34 1 58 58 NE 7 11 30.53 1034 10 16.09344 0 0
9:35 am 09:35 Sunny 50 10 34 1 54 54 NNE 5 7 30.53 1034 10 16.09344 0 0
9:55 am 09:55 Sunny 50 10 34 1 54 54 NNE 5 7 30.53 1034 10 16.09344 0 0
10:15 am 10:15 Sunny 52 11 32 0 47 47 NNE 8 13 30.53 1034 10 16.09344 0 0
10:35 am 10:35 Sunny 52 11 34 1 50 50 NNE 7 11 30.53 1034 10 16.09344 0 0
10:55 am 10:55 Sunny 54 12 34 1 47 47 N 5 7 30.53 1034 10 16.09344 0 0
11:15 am 11:15 Sunny 54 12 32 0 44 44 N 6 9 30.53 1034 10 16.09344 0 0
11:35 am 11:35 Sunny 55 13 32 0 41 41 N 3 6 30.53 1034 10 16.09344 0 0
11:55 am 11:55 Sunny 55 13 32 0 41 41 NNE 8 13 30.5 1033 10 16.09344 0 0
12:15 pm 12:15 Sunny 57 14 32 0 39 39 NNE 7 11 30.48 1032 10 16.09344 0 0
12:35 pm 12:35 Sunny 59 15 32 0 36 36 NNE 6 9 30.45 1031 10 16.09344 0 0
12:55 pm 12:55 Sunny 59 15 32 0 36 36 NNE 7 11 30.45 1031 10 16.09344 0 0
1:15 pm 13:15 Sunny 59 15 32 0 36 36 Calm 30.45 1031 10 16.09344 0 0
1:35 pm 13:35 Sunny 61 16 32 0 34 34 NE 5 7 30.45 1031 10 16.09344 0 0
1:55 pm 13:55 Sunny 61 16 32 0 34 34 NE 6 9 30.42 1030 10 16.09344 0 0
2:15 pm 14:15 Sunny 61 16 32 0 34 34 Calm 30.42 1030 10 16.09344 0 0
2:35 pm 14:35 Sunny 63 17 34 1 34 34 NE 3 6 30.42 1030 10 16.09344 0 0
2:55 pm 14:55 Sunny 61 16 32 0 34 34 NE 7 11 30.42 1030 10 16.09344 0 0
3:15 pm 15:15 Sunny 61 16 34 1 36 36 Calm 30.42 1030 10 16.09344 0 0
3:35 pm 15:35 Sunny 61 16 34 1 36 36 NNE 3 6 30.42 1030 10 16.09344 0 0
3:55 pm 15:55 Sunny 61 16 34 1 36 36 Calm 30.42 1030 10 16.09344 0 0
4:15 pm 16:15 Sunny 61 16 34 1 36 36 Calm 30.42 1030 10 16.09344 0 0
4:35 pm 16:35 Sunny 61 16 34 1 36 36 Calm 30.39 1029 10 16.09344 0 0
4:55 pm 16:55 Sunny 59 15 34 1 39 39 NE 3 6 30.39 1029 10 16.09344 0 0
5:15 pm 17:15 Clear 59 15 34 1 39 39 Calm 30.39 1029 10 16.09344 0 0
5:35 pm 17:35 Clear 54 12 34 1 47 47 Calm 30.42 1030 10 16.09344 0 0
5:55 pm 17:55 Clear 52 11 37 3 58 58 Calm 30.42 1030 10 16.09344 0 0
6:15 pm 18:15 Clear 52 11 37 3 58 58 Calm 30.42 1030 10 16.09344 0 0
6:35 pm 18:35 Clear 50 10 36 2 58 58 Calm 30.42 1030 10 16.09344 0 0
6:55 pm 18:55 Clear 46 8 36 2 66 66 Calm 30.42 1030 10 16.09344 0 0
7:15 pm 19:15 Clear 46 8 37 3 71 71 Calm 30.42 1030 10 16.09344 0 0
7:35 pm 19:35 Clear 46 8 37 3 71 71 Calm 30.42 1030 10 16.09344 0 0
7:55 pm 19:55 Clear 45 7 36 2 71 71 Calm 30.42 1030 10 16.09344 0 0
8:15 pm 20:15 Clear 41 5 36 2 81 81 Calm 30.42 1030 10 16.09344 0 0
8:35 pm 20:35 Clear 41 5 36 2 81 81 WNW 3 6 30.42 1030 10 16.09344 0 0
8:55 pm 20:55 Clear 43 6 36 2 76 76 Calm 30.42 1030 10 16.09344 0 0
9:15 pm 21:15 Clear 41 5 36 2 81 81 Calm 30.42 1030 10 16.09344 0 0
9:35 pm 21:35 Clear 41 5 36 2 81 81 W 5 7 30.42 1030 10 16.09344 0 0
9:55 pm 21:55 Clear 39 4 36 2 87 87 Calm 30.42 1030 10 16.09344 0 0
10:15 pm 22:15 Clear 37 3 36 2 93 93 W 5 7 30.42 1030 10 16.09344 0 0
10:35 pm 22:35 Hazy 41 5 36 2 81 81 Calm 30.39 1029 5 8.04672 0 0
10:55 pm 22:55 Clear 41 5 34 1 76 76 Calm 30.39 1029 10 16.09344 0 0
11:15 pm 23:15 Clear 37 3 34 1 87 87 W 5 7 30.39 1029 10 16.09344 0 0
11:35 pm 23:35 Clear 37 3 36 2 93 93 Calm 30.39 1029 10 16.09344 0 0
11:55 pm 23:55 Clear 37 3 36 2 93 93 Calm 30.39 1029 7 11.265408 0 0

Powered by AerisWeather